This demonstration page uses our WeatherBlox Daily Observations layout. Learn more.

38.88101, -77.10428

Hourly Observations for January 8, 2020

Temp ( °F °C ) Dew Point ( °F °C ) Humidity (%) Winds ( mph kmh ) Pressure ( in mb ) Visibility ( mi km ) Precip ( " mm )
12:52 am 00:52 Mostly Clear 31 -0.6 29 -1.7 92 92 SSW 7 11 30.03 1017 10 16.0934 0 0
1:52 am 01:52 Clear 31 -0.6 29 -1.7 92 92 SSW 8 13 30.03 1017 10 16.0934 0 0
2:52 am 02:52 Mostly Clear 31 -0.6 28 -2.2 89 89 S 7 11 30.03 1017 10 16.0934 0 0
3:52 am 03:52 Mostly Cloudy 32 0 28 -2.2 85 85 SSW 5 7 30.03 1017 10 16.0934 0 0
4:52 am 04:52 Mostly Cloudy 34 1.1 30 -1.1 85 85 SW 6 9 30.05 1018 10 16.0934 0 0
5:52 am 05:52 Mostly Clear 34 1.1 29 -1.7 82 82 SSW 7 11 30.05 1018 10 16.0934 0 0
6:52 am 06:52 Partly Cloudy 33 0.6 28 -2.2 82 82 SW 8 13 30.03 1017 10 16.0934 0 0
7:52 am 07:52 Mostly Cloudy 33 0.6 29 -1.7 85 85 SW 8 13 30.04 1017 10 16.0934 0 0
8:52 am 08:52 Mostly Cloudy 38 3.3 29 -1.7 70 70 WSW 13 20 30.06 1018 10 16.0934 0 0
9:52 am 09:52 Partly Cloudy 42 5.6 30 -1.1 62 62 W 12 19 30.08 1019 10 16.0934 0.001 0.001
10:52 am 10:52 Mostly Cloudy 42 5.6 31 -0.6 65 65 W 14 22 30.1 1019 10 16.0934 0 0
11:52 am 11:52 Mostly Sunny 45 7.2 28 -2.2 52 52 W 20 31 30.09 1019 10 16.0934 0 0
12:52 pm 12:52 Mostly Sunny 46 7.8 24 -4.4 42 42 WNW 23 37 30.09 1019 10 16.0934 0 0
1:52 pm 13:52 Mostly Sunny 47 8.3 20 -6.7 34 34 WNW 20 31 30.12 1020 10 16.0934 0 0
2:52 pm 14:52 Mostly Sunny 46 7.8 15 -9.4 29 29 NW 18 30 30.17 1022 10 16.0934 0 0
3:52 pm 15:52 Mostly Sunny 45 7.2 13 -10.6 27 27 WNW 22 35 30.21 1023 10 16.0934 0 0
4:52 pm 16:52 Mostly Sunny 43 6.1 12 -11.1 28 28 NW 17 28 30.27 1025 10 16.0934 0 0
5:52 pm 17:52 Clear 41 5 13 -10.6 32 32 NW 9 15 30.3 1026 10 16.0934 0 0
6:52 pm 18:52 Clear 37 2.8 16 -8.9 42 42 N 8 13 30.36 1028 10 16.0934 0 0
7:52 pm 19:52 Clear 37 2.8 19 -7.2 48 48 NNW 17 28 30.39 1029 10 16.0934 0 0
8:52 pm 20:52 Clear 35 1.7 19 -7.2 52 52 NNW 9 15 30.43 1030 10 16.0934 0 0
9:52 pm 21:52 Clear 35 1.7 18 -7.8 50 50 NNW 12 19 30.46 1032 10 16.0934 0 0
10:52 pm 22:52 Clear 33 0.6 18 -7.8 54 54 N 8 13 30.5 1033 10 16.0934 0 0
11:52 pm 23:52 Mostly Clear 32 0 17 -8.3 54 54 N 7 11 30.53 1034 10 16.0934 0 0

Powered by AerisWeather